Regional Weather Roundup
Issued by NWS

Home | Current Version | Previous Version | Graphics & Text | Print | Product List | Glossary On
Versions: 1 2 3 4 5 6 7 8 9 10 11 12 13 14 15 16 17 18 19 20 21 22 23 24 25 26 27 28 29 30 31 32 33 34 35 36 37 38 39 40 41 42 43 44 45 46 47 48 49 50
000
ASUS43 KLMK 200402
RWRKY
KENTUCKY REGIONAL WEATHER ROUNDUP
NATIONAL WEATHER SERVICE LOUISVILLE KY
1200 AM EDT SUN AUG 20 2017

NOTE "FAIR" INDICATES FEW OR NO CLOUDS BELOW 12,000 FEET
WITH NO SIGNIFICANT WEATHER AND/OR OBSTRUCTIONS TO VISIBILITY.

KYZ001>023-026-027-061>063-070>075-200500-
WESTERN AND SOUTH CENTRAL KENTUCKY

CITY           SKY/WX    TMP DP  RH WIND       PRES   REMARKS
PADUCAH        CLEAR     75  69  81 CALM      29.97R
HENDERSON      CLEAR     70  68  93 E3        29.99R
OWENSBORO      CLEAR     76  70  82 CALM      30.00R
HOPKINSVILLE   CLEAR     77  71  82 CALM      30.00R
BOWLING GREEN  CLEAR     74  71  91 E3        30.01R
GLASGOW        CLEAR     69  69 100 CALM      30.02S
$$

KYZ024-025-028>034-038-045-046-053-200500-
NORTH CENTRAL KENTUCKY

CITY           SKY/WX    TMP DP  RH WIND       PRES   REMARKS
LOUISVILLE/SDF PTCLDY    79  68  69 S3        29.99R
LOUISVILLE/LOU CLEAR     74  70  87 CALM      30.00R
FORT KNOX      CLEAR     71  69  96 CALM      30.00R
$$

KYZ035>037-039>044-047>052-055>060-089>105-200500-
NORTHEAST KENTUCKY

CITY           SKY/WX    TMP DP  RH WIND       PRES   REMARKS
LEXINGTON      CLEAR     75  66  73 S3        30.03R
COVINGTON      PTCLDY    70  69  97 CALM      30.01R
FRANKFORT      CLEAR     72  67  84 CALM      30.01R
$$

KYZ054-064>069-076>088-106>120-200500-
SOUTHEAST KENTUCKY

CITY           SKY/WX    TMP DP  RH WIND       PRES   REMARKS
JACKSON        CLEAR     72  68  87 CALM      30.06R
LONDON         CLEAR     71  68  90 CALM      30.06R
SOMERSET       NOT AVBL
MIDDLESBORO    CLEAR     70  67  92 CALM      30.08R
MONTICELLO     CLEAR     67  66  97 W7        30.07R
$$




USA.gov is the U.S. government's official web portal to all federal, state and local government web resources and services.